Date String (YYYY-MM-DD hh:mm:ss) UTC,Instrument flags,absolute air pressure of the measurement (hPa),sample flow rate (lpm),inlet stack bypass flow (lpm),air temperature of the measurement (°C),ambient temperature measured by the external sensor (°C),aerosol sample conditioner tube jacket temperature (°C),OPC LED temperature (°C),internal box temperature (°C),relative humidity of the measurement (%),span deviation,mass concentration of particles derived from Lorenz-Mie calculation of OPC scattering (μg/m³),mass concentration of particles derived from Lorenz-Mie calculation of OPC scattering (μg/m³),mass concentration of particles derived from Lorenz-Mie calculation of OPC scattering (μg/m³)
DateTimeUTC,F1_M11,P_M11,Q1_M11,Q2_M11,T1_M11,T2_M11,T3_M11,T4_M11,T5_M11,U1_M11,ZSPAN_M11,X0_M11,X2_M11,X1_M11
2024-01-28 00:00:00,SystemResetWarning,0835.4,4.99,000.00,026.3,025.6,000.0,034.5,027.6,07.3,0000.0,0004.56,0003.22,0002.91
2024-01-28 00:01:00,SystemResetWarning,0835.4,5.01,000.00,026.4,025.6,000.0,034.5,027.6,07.4,0000.0,0004.53,0003.23,0002.90
2024-01-28 00:02:00,SystemResetWarning,0835.4,5.00,000.00,026.4,025.6,000.0,034.5,027.7,07.4,0000.0,0004.53,0003.23,0002.90
2024-01-28 00:03:00,SystemResetWarning,0835.5,5.00,000.00,026.4,025.6,000.0,034.5,027.7,07.3,0000.0,0004.45,0003.22,0002.88
2024-01-28 00:04:00,SystemResetWarning,0835.4,4.99,000.00,026.4,025.6,000.0,034.6,027.7,07.4,0000.0,0005.91,0003.21,0002.87
2024-01-28 00:05:00,SystemResetWarning,0835.4,5.00,000.00,026.4,025.6,000.0,034.6,027.7,07.3,0000.0,0005.87,0003.20,0002.85
2024-01-28 00:06:00,SystemResetWarning,0835.4,5.01,000.00,026.4,025.6,000.0,034.6,027.7,07.3,0000.0,0006.05,0003.21,0002.86
2024-01-28 00:07:00,SystemResetWarning,0835.4,5.01,000.00,026.4,025.6,000.0,034.6,027.7,07.3,0000.0,0005.97,0003.20,0002.86
2024-01-28 00:08:00,SystemResetWarning,0835.4,5.00,000.00,026.4,025.6,000.0,034.6,027.7,07.3,0000.0,0006.17,0003.21,0002.86
2024-01-28 00:09:00,SystemResetWarning,0835.4,4.98,000.00,026.4,025.7,000.0,034.6,027.7,07.3,0000.0,0006.21,0003.21,0002.85
2024-01-28 00:10:00,SystemResetWarning,0835.4,5.00,000.00,026.4,025.7,000.0,034.6,027.7,07.3,0000.0,0006.57,0003.26,0002.85
2024-01-28 00:11:00,SystemResetWarning,0835.4,5.01,000.00,026.4,025.7,000.0,034.6,027.7,07.3,0000.0,0006.54,0003.24,0002.84
2024-01-28 00:12:00,SystemResetWarning,0835.4,5.01,000.00,026.4,025.7,000.0,034.6,027.7,07.3,0000.0,0006.56,0003.23,0002.85
2024-01-28 00:13:00,SystemResetWarning,0835.4,5.00,000.00,026.4,025.7,000.0,034.6,027.7,07.3,0000.0,0006.50,0003.21,0002.84
2024-01-28 00:14:00,SystemResetWarning,0835.4,5.00,000.00,026.4,025.7,000.0,034.6,027.7,07.3,0000.0,0006.60,0003.22,0002.84
2024-01-28 00:15:00,SystemResetWarning,0835.4,5.00,000.00,026.4,025.7,000.0,034.6,027.7,07.3,0000.0,0005.42,0003.23,0002.82
2024-01-28 00:16:00,SystemResetWarning,0835.5,4.99,000.00,026.4,025.7,000.0,034.7,027.7,07.5,0000.0,0006.04,0003.21,0002.80
2024-01-28 00:17:00,SystemResetWarning,0835.5,5.00,000.00,026.4,025.7,000.0,034.7,027.7,07.6,0000.0,0005.79,0003.20,0002.79
2024-01-28 00:18:00,SystemResetWarning,0835.5,5.01,000.00,026.4,025.7,000.0,034.7,027.7,07.7,0000.0,0006.09,0003.20,0002.77
2024-01-28 00:19:00,SystemResetWarning,0835.5,5.01,000.00,026.4,025.7,000.0,034.7,027.7,07.7,0000.0,0006.20,0003.16,0002.74
2024-01-28 00:20:00,SystemResetWarning,0835.5,4.99,000.00,026.4,025.7,000.0,034.7,027.7,07.8,0000.0,0006.19,0003.16,0002.73
2024-01-28 00:21:00,SystemResetWarning,0835.5,4.99,000.00,026.4,025.7,000.0,034.7,027.7,07.8,0000.0,0005.89,0003.12,0002.71
2024-01-28 00:22:00,SystemResetWarning,0835.5,5.01,000.00,026.4,025.6,000.0,034.7,027.7,07.8,0000.0,0005.96,0003.12,0002.72
2024-01-28 00:23:00,SystemResetWarning,0835.5,5.01,000.00,026.4,025.6,000.0,034.7,027.7,07.8,0000.0,0006.01,0003.11,0002.71
2024-01-28 00:24:00,SystemResetWarning,0835.4,5.01,000.00,026.4,025.6,000.0,034.7,027.7,07.8,0000.0,0005.99,0003.10,0002.70
2024-01-28 00:25:00,SystemResetWarning,0835.4,5.00,000.00,026.5,025.6,000.0,034.7,027.7,07.8,0000.0,0006.55,0003.11,0002.71
2024-01-28 00:26:00,SystemResetWarning,0835.5,5.00,000.00,026.4,025.6,000.0,034.7,027.7,07.8,0000.0,0006.67,0003.08,0002.70
2024-01-28 00:27:00,SystemResetWarning,0835.5,4.99,000.00,026.4,025.6,000.0,034.7,027.7,07.8,0000.0,0005.78,0003.05,0002.71
2024-01-28 00:28:00,SystemResetWarning,0835.5,4.99,000.00,026.4,025.5,000.0,034.7,027.7,07.8,0000.0,0005.84,0003.05,0002.69
2024-01-28 00:29:00,SystemResetWarning,0835.5,5.01,000.00,026.4,025.5,000.0,034.7,027.7,07.9,0000.0,0005.40,0003.00,0002.69
2024-01-28 00:30:00,SystemResetWarning,0835.5,5.01,000.00,026.4,025.5,000.0,034.7,027.7,07.9,0000.0,0005.15,0003.06,0002.71
2024-01-28 00:31:00,SystemResetWarning,0835.5,5.00,000.00,026.4,025.5,000.0,034.7,027.7,07.9,0000.0,0005.76,0003.05,0002.71
2024-01-28 00:32:00,SystemResetWarning,0835.5,5.00,000.00,026.4,025.4,000.0,034.7,027.7,07.9,0000.0,0005.79,0003.03,0002.69
2024-01-28 00:33:00,SystemResetWarning,0835.5,5.00,000.00,026.4,025.4,000.0,034.7,027.7,08.0,0000.0,0005.76,0003.04,0002.69
2024-01-28 00:34:00,SystemResetWarning,0835.5,5.00,000.00,026.4,025.4,000.0,034.7,027.7,07.9,0000.0,0006.21,0003.06,0002.68
2024-01-28 00:35:00,SystemResetWarning,0835.5,5.00,000.00,026.4,025.4,000.0,034.7,027.7,07.9,0000.0,0006.25,0003.07,0002.67
2024-01-28 00:36:00,SystemResetWarning,0835.5,5.00,000.00,026.4,025.4,000.0,034.7,027.6,08.0,0000.0,0006.63,0003.09,0002.66
2024-01-28 00:37:00,SystemResetWarning,0835.5,5.00,000.00,026.4,025.4,000.0,034.7,027.6,08.0,0000.0,0006.12,0003.09,0002.67
2024-01-28 00:38:00,SystemResetWarning,0835.5,5.00,000.00,026.4,025.3,000.0,034.7,027.6,08.0,0000.0,0006.29,0003.10,0002.67
2024-01-28 00:39:00,SystemResetWarning,0835.5,5.00,000.00,026.4,025.3,000.0,034.7,027.6,08.0,0000.0,0006.32,0003.10,0002.68
2024-01-28 00:40:00,SystemResetWarning,0835.5,4.99,000.00,026.4,025.3,000.0,034.7,027.6,08.0,0000.0,0006.57,0003.12,0002.68
2024-01-28 00:41:00,SystemResetWarning,0835.5,4.99,000.00,026.4,025.3,000.0,034.7,027.6,08.1,0000.0,0006.53,0003.12,0002.68
2024-01-28 00:42:00,SystemResetWarning,0835.5,5.00,000.00,026.4,025.3,000.0,034.7,027.6,08.0,0000.0,0006.06,0003.11,0002.68
2024-01-28 00:43:00,SystemResetWarning,0835.5,5.01,000.00,026.4,025.2,000.0,034.7,027.6,08.0,0000.0,0006.05,0003.12,0002.70
2024-01-28 00:44:00,SystemResetWarning,0835.5,5.00,000.00,026.3,025.2,000.0,034.7,027.6,08.0,0000.0,0006.29,0003.17,0002.73
2024-01-28 00:45:00,SystemResetWarning,0835.5,5.00,000.00,026.3,025.2,000.0,034.7,027.6,08.0,0000.0,0006.91,0003.20,0002.77
2024-01-28 00:46:00,SystemResetWarning,0835.5,5.00,000.00,026.3,025.2,000.0,034.7,027.6,08.1,0000.0,0006.99,0003.23,0002.80
2024-01-28 00:47:00,SystemResetWarning,0835.5,5.00,000.00,026.3,025.2,000.0,034.6,027.6,08.1,0000.0,0006.36,0003.23,0002.84
2024-01-28 00:48:00,SystemResetWarning,0835.5,5.01,000.00,026.3,025.1,000.0,034.6,027.5,08.1,0000.0,0006.29,0003.28,0002.87
2024-01-28 00:49:00,SystemResetWarning,0835.5,5.00,000.00,026.3,025.1,000.0,034.6,027.5,08.1,0000.0,0007.20,0003.31,0002.90
2024-01-28 00:50:00,SystemResetWarning,0835.5,5.00,000.00,026.3,025.1,000.0,034.6,027.6,08.1,0000.0,0008.03,0003.34,0002.93
2024-01-28 00:51:00,SystemResetWarning,0835.5,5.00,000.00,026.3,025.1,000.0,034.6,027.5,08.2,0000.0,0008.46,0003.37,0002.97
2024-01-28 00:52:00,SystemResetWarning,0835.5,5.00,000.00,026.3,025.0,000.0,034.6,027.5,08.2,0000.0,0008.82,0003.38,0003.00
2024-01-28 00:53:00,SystemResetWarning,0835.5,5.00,000.00,026.3,025.0,000.0,034.6,027.5,08.2,0000.0,0008.87,0003.42,0003.04
2024-01-28 00:54:00,SystemResetWarning,0835.5,5.00,000.00,026.2,025.0,000.0,034.6,027.5,08.4,0000.0,0009.01,0003.45,0003.06
2024-01-28 00:55:00,SystemResetWarning,0835.6,5.00,000.00,026.2,025.0,000.0,034.6,027.5,08.5,0000.0,0009.43,0003.44,0003.06
2024-01-28 00:56:00,SystemResetWarning,0835.6,5.00,000.00,026.2,025.0,000.0,034.6,027.5,08.6,0000.0,0009.75,0003.47,0003.05
2024-01-28 00:57:00,SystemResetWarning,0835.5,5.00,000.00,026.2,024.9,000.0,034.6,027.4,08.6,0000.0,0009.80,0003.48,0003.04
2024-01-28 00:58:00,SystemResetWarning,0835.5,5.00,000.00,026.2,024.9,000.0,034.6,027.4,08.5,0000.0,0010.01,0003.50,0003.03
2024-01-28 00:59:00,SystemResetWarning,0835.5,5.00,000.00,026.2,024.9,000.0,034.5,027.4,08.5,0000.0,0010.03,0003.50,0003.02
